Other Public Products
Issued by NWS Charleston, SC

Home | Current Version | Previous Version | Text Only | Print | Product List | Glossary On
Versions: 1 2 3 4 5 6 7 8 9 10 11 12 13 14 15 16 17 18 19 20 21 22 23 24 25 26 27 28 29 30 31 32 33 34 35 36 37 38 39 40 41 42 43 44 45 46 47 48 49 50
000
FPUS82 KCHS 231628
OPUCHS

TEST...KCHS/KSAV Gateway Observations...TEST
National Weather Service Charleston SC
1200 PM EDT MON APR 23 2018

NOTE: "fair" indicates few or no clouds below 12,000 feet with no
significant weather and/or obstructions to visibility.

SCZ050-WAZ558-NCZ071-TXZ119-213-PAZ071-DCZ001-FLZ074-172-MI076-
NYZ176-178-MAZ016-IL014-TNZ027-NJZ106-GAZ044-MD014-231700-

...Gateway Observations for Charleston International...

CITY           SKY/WX    TMP DP  RH WIND       PRES   REMARKS
Chas Airport   HVY RAIN  65  62  90 E21G28    30.12F FOG
Seattle        MOSUNNY   50  40  68 N7        30.36S
Charlotte      LGT RAIN  57  54  89 E15G30    30.21F FOG
Dallas DFW     MOSUNNY   65  51  60 NW13      30.09S
Dallas Love    MOSUNNY   65  51  60 N13       30.10S
Philladelphia  FAIR      65  36  34 E7        30.45F
Wash National  CLOUDY    66  45  46 S8        30.43S
Baltimore      PTSUNNY   63  44  50 E9        30.43S
Miami          PTSUNNY   82  74  76 SE20      30.06S
Detroit        PTSUNNY   63  39  41 VRB6      30.24F
Newark         FAIR      62  33  33 E7        30.48S
Laguardia      FAIR      57  28  33 NE12      30.48F
J F K          FAIR      59  22  24 E15       30.50S
Boston Logan   FAIR      55  22  27 SE12      30.49F
Ft. Lauderdale PTSUNNY   79  74  84 SE13      30.06R
Chicago O`Hare PTSUNNY   55  29  36 NE14      30.17F
Chicago Midway PTSUNNY   55  30  38 NE13      30.17F
Houston Bush   FAIR      71  51  49 NW10      30.09S
Houston Hobby  FAIR      70  49  47 NW13G18   30.09S
Nashville      PTSUNNY   66  60  81 E10       29.93F
Atlanta        CLOUDY    62  61  96 E10       30.00R

$$

GAZ044-118-TXZ119-213-NCZ071-DCZ001-MDZ014-506-PAZ021-071-NJZ106-
NYZ176-178-MAZ106-OHZ011-021-055-MIZ076-KYZ091-ILZ014-INZ047-
MNZ060-ONZ431-231700-

...Gateway Observations for Savannah International...

CITY           SKY/WX    TMP DP  RH WIND       PRES   REMARKS
Savannah Arpt  LGT RAIN  71  69  93 S10       30.02R
Atlanta        CLOUDY    62  61  96 E10       30.00R
Charlotte      LGT RAIN  57  54  89 E15G30    30.21F FOG
Dallas DFW     MOSUNNY   65  51  60 NW13      30.09S
Houston Bush   FAIR      71  51  49 NW10      30.09S
Wash National  CLOUDY    66  45  46 S8        30.43S
Wash Dulles    PTSUNNY   64  42  44 SE8G17    30.41F
Baltimore      PTSUNNY   63  44  50 E9        30.43S
Philadelphia   FAIR      65  36  34 E7        30.45F
Newark         FAIR      62  33  33 E7        30.48S
Laguardia      FAIR      57  28  33 NE12      30.48F
J F K          FAIR      59  22  24 E15       30.50S
Boston         FAIR      55  22  27 SE12      30.49F
Pittsburg      PTSUNNY   65  39  38 E15G23    30.26F
Akron          PTSUNNY   68  41  37 SE13      30.23F
Cleveland      PTSUNNY   69  41  36 S10G17    30.24F
Cincinnati     RAIN      54  50  86 E13       30.13R FOG
Columbus       FAIR      68  46  45 S18G25    30.17R
Detroit        PTSUNNY   63  39  41 VRB6      30.24F
Chicago O`Hare PTSUNNY   55  29  36 NE14      30.17F
Minneapolis    FAIR      62  34  35 SW7       30.23F
Indianapolis   LGT RAIN  55  50  83 E12       30.11S
Toronto Canada MOSUNNY   59  23  25 SE9       30.36F

$$




USA.gov is the U.S. government's official web portal to all federal, state and local government web resources and services.